CZ-4B R/B

基本信息
目录编号:
29507
目录名称:
CZ-4B R/B
国际标识:
2006-046C
轨道中心:
EARTH
物体状态:
在轨
发射日期:
2006-10-23 UTC
国别:
中国 (CN)
轨道信息
数据来源: 国际轨道数据
星历时间: 2026-09-04T10:06:13+0800
半长轴: 6889.014km
偏心率: 0.0032439
轨道倾角: 97.539°
近地点辐角: 11.294°
升交点赤经: 291.449°
平近点角: 348.902°
近地点: 488.529km
远地点: 533.225km
周期: 94.841分钟
每日圈数: 15.183336
详细信息
发射场:
TSC
轨道高度:
LEO
数据来源:
AOE Integration Group
参考系:
TEME
时间系统:
UTC
历元类型:
SGP4
2D轨道图
3D轨道图
轨道高度分析图
轨道倾角分析图
轨道综合分析图
查看轨道综合分析图